User: anonymous   Login
Location: Unspecified
(53.5452°N, 0.0000°E)
Time: 07:14:21
(UTC+00:00)
Language:

Cosmos 2297 Rocket - Orbit

View from above orbital plane
View from above orbital plane
View from above satellite
View from above satellite

Ground track
Ground track

The orbit is defined by the following mean orbital elements,

1 23405U          26088.05851976 +.00000000 +00000-0 -85772-5 0 00007
2 23405  70.9834 311.7427 0001931 196.9872 163.1187 14.15569231    02
Epoch (UTC): 29 March 2026 01:24:16
Eccentricity: 0.0001931
inclination: 70.9834°
perigee height: 839 km
apogee height: 842 km
right ascension of ascending node: 311.7427°
argument of perigee: 196.9872°
revolutions per day: 14.15569231
mean anomaly at epoch: 163.1187°

The dashed part of the orbit path shows where the satellite is in the earth's shadow,  

DLR